Location: Newark
(43.0000°N, 1.6781°W)
Time: 10:11:36
(UTC+00:00)

AO-7 - Pass Details

Date: 11 December 2022
Orbit: 1440 x 1459 km, 101.9° (Epoch: 28 January)

Event Time Altitude Azimuth Distance (km) Brightness Sun altitude
Rises 17:24:01 0° 207° (SSW) 4,524 ? -9.3°
Reaches altitude 10° 17:27:45 10° 223° (SW) 3,549 ? -9.9°
Maximum altitude 17:33:32 21° 268° (W) 2,813 ? -10.9°
Drops below altitude 10° 17:39:22 10° 314° (NW) 3,559 ? -11.9°
Sets 17:43:10 0° 330° (NNW) 4,542 ? -12.5°
